Regional Weather Roundup
Issued by NWS

Home | Current Version | Previous Version | Graphics & Text | Print | Product List | Glossary On
Versions: 1 2 3 4 5 6 7 8 9 10 11 12 13 14 15 16 17 18 19 20 21 22 23 24 25 26 27 28 29 30 31 32 33 34 35 36 37 38 39 40 41 42 43 44 45 46 47 48 49 50
000
ASUS43 KTOP 262159
RWRKS

WEATHER ROUNDUP FOR KANSAS
NATIONAL WEATHER SERVICE GOODLAND KS
500 PM CDT THU MAR 26 2015

NOTE:  "FAIR" INDICATES FEW OR NO CLOUDS BELOW 12,000 FEET WITH NO
SIGNIFICANT WEATHER AND/OR OBSTRUCTIONS TO VISIBILITY.

KSZ001>006-013>018-027>032-041>047-262300-
NORTHWEST KANSAS

CITY           SKY/WX    TMP DP  RH WIND       PRES   REMARKS
GOODLAND       CLOUDY    59  25  27 N25G33    30.07S
HAYS           CLOUDY    64  30  27 W25G31    29.99F
HILL CITY      PTSUNNY   64  27  24 NW25G35   30.01S
RUSSELL        PTSUNNY   61  33  35 SW16      29.98F
$$

KSZ061>065-074>080-084>089-262300-
SOUTHWEST KANSAS

CITY           SKY/WX    TMP DP  RH WIND       PRES   REMARKS
DODGE CITY     CLOUDY    63  27  25 W17G32    30.05F
ELKHART          N/A    N/A N/A N/A MISG        N/A
GARDEN CITY    CLOUDY    63  22  20 NW18G24   30.05F
GREAT BEND     PTSUNNY   61  30  31 W17       30.02F
LIBERAL        PTSUNNY   64  28  25 NW17G25   30.10F
$$

KSZ066>073-081>083-090>101-262300-
SOUTHEAST KANSAS

CITY           SKY/WX    TMP DP  RH WIND       PRES   REMARKS
CHANUTE        SUNNY     54  25  32 VRB6      30.11F
COFFEYVILLE    SUNNY     56  26  31 NW13      30.11F
HUTCHINSON     SUNNY     59  31  34 W7        30.07F
MEDICINE LODGE   N/A     62  30  29 W9        30.08F
NEWTON         SUNNY     54  30  40 S8G17     30.11F
PARSONS        SUNNY     56  28  34 N7        30.12F
WICHITA INTL   MOSUNNY   57  30  35 SW6       30.09F
WICHITA JABRA  SUNNY     54  30  40 W9        30.10F
WINFIELD       SUNNY     59  28  30 VRB5      30.12F
$$

KSZ007>012-019>026-033>040-048>060-102>105-262300-
NORTHEAST KANSAS

CITY           SKY/WX    TMP DP  RH WIND       PRES   REMARKS
CONCORDIA      CLOUDY    56  29  35 S7        30.03F
EMPORIA        SUNNY     54  25  32 VRB3      30.08F
LAWRENCE       SUNNY     52  27  38 VRB5      30.10F
MANHATTAN      PTSUNNY   53  27  36 W5        30.07F
OLATHE IND     SUNNY     51  27  39 W10       30.10F
OLATHE EXE     SUNNY     51  25  36 N10       30.09F
SALINA         MOSUNNY   58  29  33 E6        30.05F HAZE
TOPEKA BILLARD MOSUNNY   53  27  36 NW5       30.10F
TOPEKA FORBES  SUNNY     54  27  35 N7        30.08F
$$



USA.gov is the U.S. government's official web portal to all federal, state and local government web resources and services.